Time,TemperatureF,DewpointF,PressureIn,WindDirection,WindDirectionDegrees,WindSpeedMPH,WindSpeedGustMPH,Humidity,HourlyPrecipIn,Conditions,Clouds,dailyrainin,SoftwareType,DateUTC
2013-03-04 00:09:00,28.8,13.0,29.99,NW,306,2.0,5.0,53,0.00,,,0.00,weatherlink.com 1.10,2013-03-04 05:09:00,
2013-03-04 00:24:00,28.6,14.0,29.99,West,270,2.0,6.0,54,0.00,,,0.00,weatherlink.com 1.10,2013-03-04 05:24:00,
2013-03-04 00:39:00,28.5,14.0,29.99,NW,309,2.0,6.0,54,0.00,,,0.00,weatherlink.com 1.10,2013-03-04 05:39:00,
2013-03-04 00:54:00,28.3,13.0,29.99,SW,234,3.0,8.0,54,0.00,,,0.00,weatherlink.com 1.10,2013-03-04 05:54:00,
2013-03-04 01:09:00,28.3,13.0,29.99,WNW,300,3.0,9.0,54,0.00,,,0.00,weatherlink.com 1.10,2013-03-04 06:09:00,
2013-03-04 01:24:00,28.2,14.0,29.99,WNW,288,4.0,6.0,55,0.00,,,0.00,weatherlink.com 1.10,2013-03-04 06:24:00,
2013-03-04 01:39:00,28.2,13.0,29.99,NW,309,3.0,7.0,54,0.00,,,0.00,weatherlink.com 1.10,2013-03-04 06:39:00,
2013-03-04 01:54:00,28.1,14.0,30.00,NW,313,3.0,6.0,56,0.00,,,0.00,weatherlink.com 1.10,2013-03-04 06:54:00,
2013-03-04 02:09:00,28.1,14.0,30.00,NW,319,3.0,8.0,56,0.00,,,0.00,weatherlink.com 1.10,2013-03-04 07:09:00,
2013-03-04 02:24:00,27.9,14.0,30.00,WNW,288,4.0,7.0,56,0.00,,,0.00,weatherlink.com 1.10,2013-03-04 07:24:00,
2013-03-04 02:39:00,28.0,13.0,30.00,WNW,286,3.0,8.0,54,0.00,,,0.00,weatherlink.com 1.10,2013-03-04 07:39:00,
2013-03-04 02:54:00,28.0,13.0,30.00,WNW,303,3.0,7.0,54,0.00,,,0.00,weatherlink.com 1.10,2013-03-04 07:54:00,
2013-03-04 03:09:00,27.8,13.0,30.00,WNW,298,3.0,6.0,55,0.00,,,0.00,weatherlink.com 1.10,2013-03-04 08:09:00,
2013-03-04 03:24:00,27.7,14.0,30.01,NW,317,2.0,5.0,56,0.00,,,0.00,weatherlink.com 1.10,2013-03-04 08:24:00,
2013-03-04 03:39:00,27.7,14.0,30.01,WNW,298,2.0,5.0,57,0.00,,,0.00,weatherlink.com 1.10,2013-03-04 08:39:00,
2013-03-04 03:54:00,27.6,14.0,30.01,NW,325,2.0,5.0,58,0.00,,,0.00,weatherlink.com 1.10,2013-03-04 08:54:00,
2013-03-04 04:09:00,27.4,14.0,30.02,NW,306,0.0,4.0,58,0.00,,,0.00,weatherlink.com 1.10,2013-03-04 09:09:00,
2013-03-04 04:24:00,27.2,14.0,30.02,WNW,285,2.0,5.0,58,0.00,,,0.00,weatherlink.com 1.10,2013-03-04 09:24:00,
2013-03-04 04:39:00,27.2,14.0,30.03,NW,322,2.0,7.0,57,0.00,,,0.00,weatherlink.com 1.10,2013-03-04 09:39:00,
2013-03-04 04:54:00,27.0,13.0,30.03,WNW,290,2.0,5.0,57,0.00,,,0.00,weatherlink.com 1.10,2013-03-04 09:54:00,
2013-03-04 05:09:00,27.0,13.0,30.03,NW,313,1.0,5.0,57,0.00,,,0.00,weatherlink.com 1.10,2013-03-04 10:09:00,
2013-03-04 05:24:00,26.9,13.0,30.04,WNW,290,2.0,6.0,56,0.00,,,0.00,weatherlink.com 1.10,2013-03-04 10:24:00,
2013-03-04 05:39:00,26.9,13.0,30.05,NW,306,2.0,5.0,56,0.00,,,0.00,weatherlink.com 1.10,2013-03-04 10:39:00,
2013-03-04 05:54:00,27.0,13.0,30.06,NW,325,5.0,8.0,56,0.00,,,0.00,weatherlink.com 1.10,2013-03-04 10:54:00,
2013-03-04 06:09:00,27.0,13.0,30.06,WNW,292,3.0,11.0,56,0.00,,,0.00,weatherlink.com 1.10,2013-03-04 11:09:00,
2013-03-04 06:24:00,26.8,13.0,30.07,WNW,297,1.0,7.0,57,0.00,,,0.00,weatherlink.com 1.10,2013-03-04 11:24:00,
2013-03-04 06:39:00,26.7,13.0,30.07,West,268,4.0,10.0,56,0.00,,,0.00,weatherlink.com 1.10,2013-03-04 11:39:00,
2013-03-04 06:54:00,26.6,13.0,30.07,NW,306,3.0,5.0,57,0.00,,,0.00,weatherlink.com 1.10,2013-03-04 11:54:00,
2013-03-04 07:09:00,26.5,13.0,30.08,SW,235,2.0,3.0,57,0.00,,,0.00,weatherlink.com 1.10,2013-03-04 12:09:00,
2013-03-04 07:24:00,26.9,13.0,30.08,NW,325,1.0,3.0,56,0.00,,,0.00,weatherlink.com 1.10,2013-03-04 12:24:00,
2013-03-04 07:39:00,27.1,13.0,30.09,WNW,301,0.0,4.0,56,0.00,,,0.00,weatherlink.com 1.10,2013-03-04 12:39:00,
2013-03-04 07:54:00,27.5,13.0,30.10,WNW,286,2.0,4.0,55,0.00,,,0.00,weatherlink.com 1.10,2013-03-04 12:54:00,
2013-03-04 08:09:00,28.1,13.0,30.10,WNW,285,2.0,6.0,54,0.00,,,0.00,weatherlink.com 1.10,2013-03-04 13:09:00,
2013-03-04 08:25:00,28.8,13.0,30.11,WNW,292,4.0,6.0,53,0.00,,,0.00,weatherlink.com 1.10,2013-03-04 13:25:00,
2013-03-04 08:40:00,29.5,14.0,30.10,West,281,5.0,10.0,52,0.00,,,0.00,weatherlink.com 1.10,2013-03-04 13:40:00,
2013-03-04 08:55:00,30.2,13.0,30.10,West,271,3.0,10.0,49,0.00,,,0.00,weatherlink.com 1.10,2013-03-04 13:55:00,
2013-03-04 09:10:00,31.1,14.0,30.11,NW,311,4.0,8.0,49,0.00,,,0.00,weatherlink.com 1.10,2013-03-04 14:10:00,
2013-03-04 09:25:00,31.8,14.0,30.11,NNW,344,1.0,8.0,47,0.00,,,0.00,weatherlink.com 1.10,2013-03-04 14:25:00,
2013-03-04 09:40:00,32.4,13.0,30.12,WSW,257,6.0,9.0,45,0.00,,,0.00,weatherlink.com 1.10,2013-03-04 14:40:00,
2013-03-04 09:55:00,33.2,13.0,30.12,WNW,284,2.0,9.0,44,0.00,,,0.00,weatherlink.com 1.10,2013-03-04 14:55:00,
2013-03-04 10:10:00,33.7,13.0,30.11,NNW,331,4.0,10.0,42,0.00,,,0.00,weatherlink.com 1.10,2013-03-04 15:10:00,
2013-03-04 10:25:00,34.7,13.0,30.11,West,261,4.0,8.0,41,0.00,,,0.00,weatherlink.com 1.10,2013-03-04 15:25:00,
2013-03-04 10:40:00,35.6,13.0,30.11,WNW,291,2.0,9.0,40,0.00,,,0.00,weatherlink.com 1.10,2013-03-04 15:40:00,
2013-03-04 10:55:00,36.1,13.0,30.11,NNW,348,4.0,9.0,38,0.00,,,0.00,weatherlink.com 1.10,2013-03-04 15:55:00,
2013-03-04 11:10:00,36.5,12.0,30.10,WSW,244,3.0,11.0,36,0.00,,,0.00,weatherlink.com 1.10,2013-03-04 16:10:00,
2013-03-04 11:25:00,38.6,12.0,30.10,West,265,2.0,5.0,33,0.00,,,0.00,weatherlink.com 1.10,2013-03-04 16:25:00,
2013-03-04 11:40:00,38.5,12.0,30.10,WNW,288,4.0,10.0,33,0.00,,,0.00,weatherlink.com 1.10,2013-03-04 16:40:00,
2013-03-04 11:55:00,39.4,11.0,30.09,West,275,5.0,7.0,31,0.00,,,0.00,weatherlink.com 1.10,2013-03-04 16:55:00,
2013-03-04 12:10:00,40.4,12.0,30.09,WNW,286,3.0,8.0,31,0.00,,,0.00,weatherlink.com 1.10,2013-03-04 17:10:00,
2013-03-04 12:25:00,41.0,10.0,30.09,SW,224,3.0,10.0,28,0.00,,,0.00,weatherlink.com 1.10,2013-03-04 17:25:00,
2013-03-04 12:40:00,41.4,10.0,30.09,West,271,2.0,10.0,28,0.00,,,0.00,weatherlink.com 1.10,2013-03-04 17:40:00,
2013-03-04 12:55:00,42.6,11.0,30.08,NW,326,5.0,7.0,28,0.00,,,0.00,weatherlink.com 1.10,2013-03-04 17:55:00,
2013-03-04 13:10:00,43.6,10.0,30.07,WSW,242,3.0,10.0,25,0.00,,,0.00,weatherlink.com 1.10,2013-03-04 18:10:00,
2013-03-04 13:25:00,44.1,10.0,30.06,West,271,7.0,10.0,25,0.00,,,0.00,weatherlink.com 1.10,2013-03-04 18:25:00,
2013-03-04 13:40:00,44.3,9.0,30.06,West,281,4.0,10.0,24,0.00,,,0.00,weatherlink.com 1.10,2013-03-04 18:40:00,
2013-03-04 13:55:00,45.1,10.0,30.05,NNW,330,3.0,7.0,24,0.00,,,0.00,weatherlink.com 1.10,2013-03-04 18:55:00,
2013-03-04 14:11:00,45.1,11.0,30.05,NNW,335,2.0,8.0,25,0.00,,,0.00,weatherlink.com 1.10,2013-03-04 19:11:00,
2013-03-04 14:26:00,45.7,11.0,30.04,WNW,285,3.0,8.0,24,0.00,,,0.00,weatherlink.com 1.10,2013-03-04 19:26:00,
2013-03-04 14:41:00,47.3,10.0,30.03,West,275,5.0,6.0,22,0.00,,,0.00,weatherlink.com 1.10,2013-03-04 19:41:00,
2013-03-04 14:56:00,48.2,10.0,30.03,NNW,330,2.0,6.0,21,0.00,,,0.00,weatherlink.com 1.10,2013-03-04 19:56:00,
2013-03-04 15:11:00,48.7,9.0,30.02,West,277,5.0,9.0,20,0.00,,,0.00,weatherlink.com 1.10,2013-03-04 20:11:00,
2013-03-04 15:26:00,49.1,9.0,30.02,West,279,3.0,8.0,20,0.00,,,0.00,weatherlink.com 1.10,2013-03-04 20:26:00,
2013-03-04 15:41:00,50.1,10.0,30.02,NW,311,5.0,6.0,20,0.00,,,0.00,weatherlink.com 1.10,2013-03-04 20:41:00,
2013-03-04 15:56:00,50.2,9.0,30.02,WNW,286,3.0,6.0,19,0.00,,,0.00,weatherlink.com 1.10,2013-03-04 20:56:00,
2013-03-04 16:11:00,49.9,9.0,30.02,West,267,5.0,7.0,19,0.00,,,0.00,weatherlink.com 1.10,2013-03-04 21:11:00,
2013-03-04 16:26:00,50.1,8.0,30.02,NNW,337,2.0,7.0,18,0.00,,,0.00,weatherlink.com 1.10,2013-03-04 21:26:00,
2013-03-04 16:41:00,50.1,8.0,30.02,NW,304,2.0,8.0,18,0.00,,,0.00,weatherlink.com 1.10,2013-03-04 21:41:00,
2013-03-04 16:56:00,50.1,7.0,30.03,NW,316,1.0,6.0,17,0.00,,,0.00,weatherlink.com 1.10,2013-03-04 21:56:00,
2013-03-04 17:11:00,50.2,7.0,30.03,WNW,285,4.0,7.0,17,0.00,,,0.00,weatherlink.com 1.10,2013-03-04 22:11:00,
2013-03-04 17:26:00,50.1,7.0,30.03,West,274,3.0,7.0,17,0.00,,,0.00,weatherlink.com 1.10,2013-03-04 22:26:00,
2013-03-04 17:41:00,49.7,8.0,30.03,SSW,198,2.0,4.0,18,0.00,,,0.00,weatherlink.com 1.10,2013-03-04 22:41:00,
2013-03-04 17:56:00,49.3,10.0,30.03,NNW,327,0.0,3.0,20,0.00,,,0.00,weatherlink.com 1.10,2013-03-04 22:56:00,
2013-03-04 18:11:00,48.0,7.0,30.03,ENE,65,0.0,1.0,19,0.00,,,0.00,weatherlink.com 1.10,2013-03-04 23:11:00,
2013-03-04 18:26:00,46.8,9.0,30.03,ENE,57,0.0,1.0,21,0.00,,,0.00,weatherlink.com 1.10,2013-03-04 23:26:00,
2013-03-04 18:41:00,45.5,10.0,30.04,ENE,57,0.0,0.0,23,0.00,,,0.00,weatherlink.com 1.10,2013-03-04 23:41:00,
2013-03-04 18:56:00,44.2,9.0,30.05,ENE,57,1.0,1.0,24,0.00,,,0.00,weatherlink.com 1.10,2013-03-04 23:56:00,
2013-03-04 19:11:00,43.0,9.0,30.06,ENE,57,0.0,1.0,25,0.00,,,0.00,weatherlink.com 1.10,2013-03-05 00:11:00,
2013-03-04 19:26:00,42.8,9.0,30.06,NNE,22,0.0,1.0,25,0.00,,,0.00,weatherlink.com 1.10,2013-03-05 00:26:00,
2013-03-04 19:41:00,42.6,9.0,30.06,NNW,342,1.0,2.0,25,0.00,,,0.00,weatherlink.com 1.10,2013-03-05 00:41:00,
2013-03-04 19:56:00,42.5,10.0,30.06,WNW,296,0.0,2.0,26,0.00,,,0.00,weatherlink.com 1.10,2013-03-05 00:56:00,
2013-03-04 20:11:00,42.0,10.0,30.06,West,281,1.0,2.0,27,0.00,,,0.00,weatherlink.com 1.10,2013-03-05 01:11:00,
2013-03-04 20:26:00,41.8,10.0,30.06,NNW,329,0.0,2.0,27,0.00,,,0.00,weatherlink.com 1.10,2013-03-05 01:26:00,
2013-03-04 20:41:00,41.2,9.0,30.06,WNW,301,0.0,1.0,27,0.00,,,0.00,weatherlink.com 1.10,2013-03-05 01:41:00,
2013-03-04 20:56:00,40.6,11.0,30.07,West,270,0.0,1.0,30,0.00,,,0.00,weatherlink.com 1.10,2013-03-05 01:56:00,
2013-03-04 21:11:00,39.3,10.0,30.07,NW,309,0.0,0.0,30,0.00,,,0.00,weatherlink.com 1.10,2013-03-05 02:11:00,
2013-03-04 21:26:00,39.5,10.0,30.07,WNW,297,2.0,2.0,30,0.00,,,0.00,weatherlink.com 1.10,2013-03-05 02:26:00,
2013-03-04 21:41:00,40.8,11.0,30.07,NW,307,1.0,2.0,29,0.00,,,0.00,weatherlink.com 1.10,2013-03-05 02:41:00,
2013-03-04 21:56:00,41.1,12.0,30.07,NW,304,0.0,2.0,30,0.00,,,0.00,weatherlink.com 1.10,2013-03-05 02:56:00,
2013-03-04 22:11:00,40.5,11.0,30.07,NW,311,0.0,1.0,30,0.00,,,0.00,weatherlink.com 1.10,2013-03-05 03:11:00,
2013-03-04 22:26:00,39.7,12.0,30.07,NW,311,0.0,0.0,32,0.00,,,0.00,weatherlink.com 1.10,2013-03-05 03:26:00,
2013-03-04 22:41:00,39.2,12.0,30.07,NW,317,1.0,2.0,33,0.00,,,0.00,weatherlink.com 1.10,2013-03-05 03:41:00,
2013-03-04 22:56:00,39.4,13.0,30.07,NNW,337,0.0,2.0,34,0.00,,,0.00,weatherlink.com 1.10,2013-03-05 03:56:00,
2013-03-04 23:11:00,39.0,13.0,30.06,NW,317,1.0,2.0,34,0.00,,,0.00,weatherlink.com 1.10,2013-03-05 04:11:00,
2013-03-04 23:26:00,38.3,13.0,30.05,North,355,0.0,1.0,35,0.00,,,0.00,weatherlink.com 1.10,2013-03-05 04:26:00,
2013-03-04 23:41:00,38.2,14.0,30.06,NNW,347,0.0,1.0,38,0.00,,,0.00,weatherlink.com 1.10,2013-03-05 04:41:00,
2013-03-04 23:56:00,38.3,15.0,30.05,NNW,347,0.0,0.0,39,0.00,,,0.00,weatherlink.com 1.10,2013-03-05 04:56:00,